DW4892 Weather Reports


Display with metric or nautical units.
time (UTC)temp
F
wind
direction
speed
MPH
gust
MPH
rain 1hr
in
rain 24hr
in
rain mn
in
humidity
%
barometer
mb
20260906124518 60 288 0.0 1.0 0.00 0.00 0.00 67 1002.5
20260906123015 61 288 0.0 3.0 0.00 0.00 0.00 65 1002.2
20260906121526 62 300 1.0 7.0 0.00 0.00 0.00 62 1002.3
20260906120021 61 290 1.0 4.0 0.00 0.00 0.00 63 1002.3
20260906114519 61 285 2.0 4.0 0.00 0.00 0.00 63 1002.3
20260906113042 61 299 1.0 3.0 0.00 0.00 0.00 62 1002.3
20260906111527 62 282 1.0 2.0 0.00 0.00 0.00 60 1002.3
20260906110022 62 292 1.0 2.0 0.00 0.00 0.00 59 1002.2
20260906104516 62 279 1.0 3.0 0.00 0.00 0.00 60 1002.0
20260906103029 63 280 0.0 1.0 0.00 0.00 0.00 59 1002.2
20260906101525 64 289 0.0 1.0 0.00 0.00 0.00 57 1002.0
20260906100017 65 289 0.0 2.0 0.00 0.00 0.00 55 1002.1
20260906094525 65 284 0.0 1.0 0.00 0.00 0.00 54 1001.9
20260906093028 65 286 0.0 3.0 0.00 0.00 0.00 54 1001.8
20260906091528 65 264 0.0 1.0 0.00 0.00 0.00 54 1001.9
20260906090022 65 174 0.0 2.0 0.00 0.00 0.00 56 1001.8
20260906084522 64 180 0.0 2.0 0.00 0.00 0.00 57 1001.6
20260906083016 64 180 0.0 1.0 0.00 0.00 0.00 59 1001.9
20260906081534 65 180 0.0 1.0 0.00 0.00 0.00 58 1002.0
20260906080021 65 222 0.0 0.0 0.00 0.00 0.00 58 1002.0
20260906074517 65 180 0.0 2.0 0.00 0.00 0.00 57 1002.1
20260906073033 66 180 0.0 2.0 0.00 0.00 0.00 56 1001.9
20260906071525 66 231 0.0 2.0 0.00 0.00 0.00 56 1001.9
20260906070021 66 236 0.0 0.0 0.00 0.00 0.00 56 1001.6
20260906064516 67 273 0.0 4.0 0.00 0.00 0.00 56 1001.5
20260906063031 67 286 0.0 2.0 0.00 0.00 0.00 57 1001.4
20260906061529 66 292 0.0 2.0 0.00 0.00 0.00 59 1001.6
20260906060022 66 344 0.0 3.0 0.00 0.00 0.00 60 1001.7
20260906054518 68 88 2.0 4.0 0.00 0.00 0.00 55 1001.8
20260906053014 70 297 1.0 3.0 0.00 0.00 0.00 55 1001.8
20260906051532 70 339 0.0 1.0 0.00 0.00 0.00 57 1001.7
20260906050048 70 30 0.0 1.0 0.00 0.00 0.00 62 1001.6
20260906044521 70 45 0.0 2.0 0.00 0.00 0.00 66 1001.8
20260906043107 70 77 0.0 1.0 0.00 0.00 0.00 66 1001.8
20260906041530 70 76 0.0 1.0 0.00 0.00 0.00 67 1001.9
20260906040024 70 76 0.0 0.0 0.00 0.00 0.00 64 1002.0
20260906034523 71 76 0.0 2.0 0.00 0.00 0.00 61 1002.1
20260906033021 74 93 0.0 12.0 0.00 0.00 0.00 56 1002.2
20260906031536 75 30 1.0 4.0 0.00 0.00 0.00 36 1001.8
20260906030027 74 102 0.0 2.0 0.00 0.00 0.00 37 1001.0
20260906024520 75 309 1.0 2.0 0.00 0.00 0.00 35 1000.7
20260906023107 77 180 0.0 1.0 0.00 0.00 0.00 33 1000.5
20260906021529 76 180 0.0 0.0 0.00 0.00 0.00 34 1000.5
20260906020022 77 180 0.0 1.0 0.00 0.00 0.00 33 1000.2
20260906014516 78 176 0.0 2.0 0.00 0.00 0.00 32 1000.2
20260906013013 79 209 0.0 3.0 0.00 0.00 0.00 31 1000.1
20260906011528 80 166 0.0 2.0 0.00 0.00 0.00 30 1000.1
20260906010028 81 180 1.0 5.0 0.00 0.00 0.00 29 1000.1
20260906004523 82 157 1.0 5.0 0.00 0.00 0.00 29 1000.1
20260906003015 83 194 1.0 5.0 0.00 0.00 0.00 28 1000.0
20260906001512 84 95 1.0 4.0 0.00 0.00 0.00 29 1000.1
20260906000030 84 200 2.0 5.0 0.00 0.00 0.00 28 999.9
20260905234521 84 125 2.0 6.0 0.00 0.00 0.00 28 999.7
20260905233025 85 194 2.0 5.0 0.00 0.00 0.00 27 999.7
20260905231513 84 57 1.0 4.0 0.00 0.00 0.00 27 999.8
20260905230026 85 271 0.0 3.0 0.00 0.00 0.00 27 999.8
20260905224526 86 29 0.0 4.0 0.00 0.00 0.00 25 999.7
20260905223019 86 307 1.0 5.0 0.00 0.00 0.00 27 999.7
20260905221557 86 82 1.0 4.0 0.00 0.00 0.00 27 999.8
20260905220029 86 52 1.0 3.0 0.00 0.00 0.00 28 999.8
20260905214521 87 46 0.0 4.0 0.00 0.00 0.00 27 1000.0
20260905213020 87 90 1.0 6.0 0.00 0.00 0.00 26 1000.0
20260905211529 89 134 2.0 5.0 0.00 0.00 0.00 23 1000.0
20260905210031 95 76 2.0 7.0 0.00 0.00 0.00 23 1000.1
20260905204522 90 30 2.0 9.0 0.00 0.00 0.00 24 1000.3
20260905203018 93 277 2.0 9.0 0.00 0.00 0.00 24 1000.5
20260905201555 92 348 2.0 6.0 0.00 0.00 0.00 25 1000.7
20260905200038 90 90 4.0 14.0 0.00 0.00 0.00 24 1000.6
20260905194520 93 44 5.0 8.0 0.00 0.00 0.00 24 1000.7
20260905193026 92 8 2.0 8.0 0.00 0.00 0.00 25 1001.1
20260905191531 92 36 3.0 6.0 0.00 0.00 0.00 26 1001.2
20260905190025 92 31 2.0 8.0 0.00 0.00 0.00 24 1001.3
20260905184532 91 52 3.0 8.0 0.00 0.00 0.00 26 1001.5
20260905183025 90 80 4.0 9.0 0.00 0.00 0.00 27 1001.6
20260905181515 89 69 2.0 8.0 0.00 0.00 0.00 28 1001.7
20260905180027 90 28 3.0 9.0 0.00 0.00 0.00 29 1001.9
20260905174533 89 81 3.0 6.0 0.00 0.00 0.00 28 1002.0
20260905173024 88 61 2.0 5.0 0.00 0.00 0.00 29 1002.3
20260905171512 84 46 2.0 6.0 0.00 0.00 0.00 30 1002.3
20260905170030 86 63 2.0 7.0 0.00 0.00 0.00 30 1002.2
20260905164526 85 60 2.0 5.0 0.00 0.00 0.00 30 1002.1
20260905163019 84 305 1.0 6.0 0.00 0.00 0.00 31 1002.2
20260905161557 82 48 1.0 5.0 0.00 0.00 0.00 31 1002.1
20260905160043 81 273 2.0 7.0 0.00 0.00 0.00 34 1002.1
20260905154523 80 346 1.0 4.0 0.00 0.00 0.00 34 1002.1
20260905153020 78 339 1.0 4.0 0.00 0.00 0.00 36 1002.1
20260905151515 77 302 1.0 4.0 0.00 0.00 0.00 37 1002.2
20260905150013 73 295 0.0 2.0 0.00 0.00 0.00 44 1002.3
20260905144542 73 163 1.0 4.0 0.00 0.00 0.00 41 1002.4
20260905143026 72 288 0.0 4.0 0.00 0.00 0.00 43 1002.3
20260905141538 71 137 1.0 3.0 0.00 0.00 0.00 45 1002.2
20260905140016 68 180 0.0 2.0 0.00 0.00 0.00 50 1002.0
20260905134531 67 226 1.0 2.0 0.00 0.00 0.00 52 1001.9
20260905133040 65 152 0.0 2.0 0.00 0.00 0.00 53 1001.8
20260905131536 64 165 1.0 2.0 0.00 0.00 0.00 57 1001.8
20260905130017 64 172 1.0 3.0 0.00 0.00 0.00 55 1001.6